MDT,Max TemperatureF,Mean TemperatureF,Min TemperatureF,Max Dew PointF,MeanDew PointF,Min DewpointF,Max Humidity, Mean Humidity, Min Humidity, Max Sea Level PressureIn, Mean Sea Level PressureIn, Min Sea Level PressureIn, Max VisibilityMiles, Mean VisibilityMiles, Min VisibilityMiles, Max Wind SpeedMPH, Mean Wind SpeedMPH, Max Gust SpeedMPH,PrecipitationIn, CloudCover, Events, WindDirDegrees
2013-3-1,37,28,19,22,19,16,91,74,56,30.48,30.41,30.34,10,7,2,14,2,18,0.01,7,Rain-Snow,351
2013-3-2,47,33,18,22,18,12,80,56,31,30.51,30.33,30.09,10,10,10,9,5,16,0.00,1,,226
2013-3-3,45,33,20,31,24,14,100,69,37,30.07,29.87,29.69,10,7,0,16,4,20,0.01,5,Fog-Snow,350
2013-3-4,38,23,8,30,24,2,100,75,50,30.23,29.85,29.67,10,4,0,30,6,43,0.17,7,Fog-Snow,346
2013-3-5,41,20,-1,13,4,-7,79,53,26,30.50,30.31,30.19,10,10,10,10,5,13,0.00,0,,232
2013-3-6,51,32,12,19,11,5,70,43,16,30.17,29.97,29.83,10,10,10,18,6,24,0.00,0,,191
2013-3-7,53,40,26,16,11,1,50,32,13,29.93,29.84,29.76,10,10,10,21,6,29,0.00,1,,189
2013-3-8,50,37,24,30,22,12,78,52,25,29.86,29.68,29.50,10,8,1,18,6,25,0.10,6,Snow,292
2013-3-9,31,25,18,30,23,13,100,80,60,30.04,29.71,29.51,10,5,0,15,6,22,0.13,7,Fog-Snow,340
2013-3-10,33,23,12,16,11,7,88,65,42,30.28,30.20,30.10,10,10,10,13,5,16,0.00,2,,244
2013-3-11,40,26,11,25,15,6,80,60,40,30.26,30.14,30.05,10,10,10,16,5,22,T,5,,316
2013-3-12,45,35,24,28,24,19,85,61,37,30.26,30.16,30.07,10,8,1,13,5,17,0.01,5,Snow,304
2013-3-13,49,35,21,23,18,13,77,50,23,30.38,30.31,30.27,10,10,10,14,7,24,0.00,1,,238
2013-3-14,57,40,23,24,18,15,74,48,22,30.41,30.29,30.19,10,10,10,12,6,16,0.00,0,,230
2013-3-15,58,43,28,25,21,17,63,44,24,30.18,30.02,29.88,10,10,10,15,6,21,0.00,0,,240
2013-3-16,45,38,30,33,29,23,85,70,54,30.03,29.84,29.77,10,9,3,22,6,26,0.03,6,Rain,170
2013-3-17,40,32,24,29,22,9,92,64,35,29.81,29.71,29.59,10,8,0,28,7,37,0.08,6,Fog-Rain-Snow,323
2013-3-18,39,31,23,14,9,5,60,43,25,29.95,29.87,29.79,10,10,10,20,6,31,0.00,5,,345
2013-3-19,41,31,21,15,3,-16,63,37,10,30.24,30.08,29.94,10,10,10,18,7,25,0.00,2,,241
2013-3-20,45,30,14,27,11,-4,75,50,25,30.20,30.04,29.82,10,10,10,12,4,15,0.00,4,,251
2013-3-21,36,26,16,31,26,13,100,78,56,29.87,29.72,29.58,10,5,0,17,3,34,0.42,7,Fog-Snow,316
2013-3-22,37,24,11,16,11,4,84,55,26,29.90,29.74,29.58,10,9,2,21,6,30,0.02,4,Snow,312
2013-3-23,23,14,5,18,10,-1,88,65,41,30.18,29.84,29.68,10,4,0,18,5,29,0.08,7,Snow,345
2013-3-24,22,11,-1,12,1,-7,80,63,45,30.29,30.14,29.96,10,8,2,24,8,30,T,5,Snow,280
2013-3-25,33,15,-3,4,-3,-10,72,46,20,30.35,30.27,30.19,10,10,10,10,6,14,0.00,0,,233
2013-3-26,48,29,10,25,14,1,67,45,23,30.22,30.01,29.86,10,10,10,16,6,24,0.00,5,,147
2013-3-27,52,40,27,23,21,16,75,51,26,30.00,29.91,29.82,10,10,10,13,5,17,0.00,4,,157
2013-3-28,54,40,26,27,20,15,63,44,24,30.04,29.99,29.96,10,10,10,17,6,23,0.00,2,,190
2013-3-29,53,43,33,30,24,20,75,54,32,30.11,30.05,29.99,10,10,10,22,6,30,T,6,,177
2013-3-30,54,40,26,27,23,19,85,56,26,30.14,30.06,29.98,10,10,10,18,7,28,0.00,2,,279
2013-3-31,57,42,26,23,18,15,69,46,22,30.08,29.99,29.90,10,10,10,14,8,18,0.00,1,,235